Regional Weather Roundup
Issued by NWS

Home | Current Version | Previous Version | Graphics & Text | Print | Product List | Glossary On
Versions: 1 2 3 4 5 6 7 8 9 10 11 12 13 14 15 16 17 18 19 20 21 22 23 24 25 26 27 28 29 30 31 32 33 34 35 36 37 38 39 40 41 42 43 44 45 46 47 48 49 50
000
ASUS45 KSLC 210210
RWRUT

UTAH REGIONAL WEATHER ROUNDUP
NATIONAL WEATHER SERVICE SALT LAKE CITY UT
800 PM MDT MON OCT 20 2014

UTZ001>011-023>025-210300-

NORTHERN UTAH

CITY           SKY/WX    TMP DP  RH WIND       PRES   REMARKS
BRIGHAM CITY   CLEAR     63  42  46 CALM      29.91S
HILL AFB       CLEAR     67  37  33 E6        29.94S
LOGAN          CLEAR     58  40  51 CALM      29.92S
OGDEN          CLEAR     62  40  44 S8        29.91S
PROVO AIRPORT  PTCLDY    66  46  48 SE9       29.95R
SALT LAKE CITY PTCLDY    66  39  37 NE5       29.91R
VERNAL         CLEAR     54  40  59 W3        30.06R
WENDOVER       MOCLDY    63  39  42 CALM      29.88S
HEBER CITY     PTCLDY    61  34  36 CALM      30.02R
WEST JORDAN    CLEAR     64  43  45 SW8       29.94R

$$

UTZ012>022-026-027-210300-

SOUTHERN/CENTRAL UTAH

CITY           SKY/WX    TMP DP  RH WIND       PRES   REMARKS
BLANDING       PTCLDY    59  37  43 CALM      30.18S
BRYCE CANYON   CLEAR     46  34  62 W3        30.18R
CEDAR CITY     PTCLDY    62  37  39 S8        30.02R
DELTA          CLEAR     62  36  37 SE10      29.95R
HANKSVILLE       N/A     61  36  39 CALM      30.03R
MILFORD        CLOUDY    65  38  36 S9        29.97R
MOAB/CYNLANDS  CLEAR     63  38  39 NW7       30.00R
PRICE          CLEAR     60  35  39 E7        30.08S
ST GEORGE      PTCLDY    75  37  25 SW8       29.90R

$$

REGIONAL REPORTS     COLORADO/ARIZONA

CITY           SKY/WX    TMP DP  RH WIND       PRES   REMARKS
CRAIG, CO      PTCLDY    46  36  68 CALM      30.12R
GRAND JUNCTION PTCLDY    55  35  47 E3        30.04S
RIFLE          PTCLDY    55  38  52 SE9       30.08R
MONTROSE       PTCLDY    58  39  49 SE10      30.13R
CORTEZ         CLOUDY    60  42  51 N6        30.13R
PAGE, AZ       NOT AVBL
GRAND CANYON   CLEAR     45  35  68 CALM      30.14R
KINGMAN        CLEAR     67  45  45 S9        29.95R
FLAGSTAFF      PTCLDY    50  41  71 CALM      30.18R

$$

REGIONAL REPORTS    NEVADA/IDAHO/WYOMING

CITY           SKY/WX    TMP DP  RH WIND       PRES   REMARKS
LAS VEGAS, NV  PTCLDY    83  42  23 S14       29.79R
ELY            PTCLDY    56  30  37 S10       29.99S
ELKO           CLOUDY    71  27  19 S9        29.83R
POCATELLO, ID  CLEAR     62  36  37 S12       29.89F
BURLEY         PTCLDY    59  36  42 VRB3      29.82S
EVANSTON, WY   PTCLDY    56  32  40 S9        30.09S
ROCK SPRINGS   PTCLDY    56  31  38 S9        30.09S
KEMMERER       CLOUDY    55  30  38 S5        30.10S

$$


USA.gov is the U.S. government's official web portal to all federal, state and local government web resources and services.